星链-11685 (STARLINK-11685)

导读 | 星芒AI

STARLINK-11685 是 SpaceX Starlink 项目中的一颗低轨通信卫星,属于第二代 Starlink 卫星(v1.5)。该卫星于2023年发射,旨在为全球提供高速互联网服务。相较于早期型号,它具备更高的带宽和改进的激光通信系统,以提升网络效率和减少延迟。作为 Starlink 卫星群的一部分,它运行在约550公里高度的轨道上,支持全球范围内的宽带接入,尤其服务于偏远地区。

基本信息
目录编号:
63552
目录名称:
STARLINK-11685
国际标识:
2025-075E
轨道中心:
EARTH
卫星名称:
星链-11685
卫星全名:
星链-11685 (STARLINK-11685)
卫星状态:
在轨 (已飞行204 天)
发射日期:
2025-04-13 UTC
国别 :
美国 (US)
星等 :
--
轨道信息
数据来源 国际轨道数据
星历时间: 2025-11-02T17:47:32+0800
17小时前
查看轨道信息
半长轴: 6734.259km
偏心率: 0.0001535
轨道倾角: 43.001°
近地点辐角 292.650°
升交点赤经 200.734°
平近点角 67.420°
近地点: 355.09km
远地点: 357.158km
周期: 91.663分钟
每日圈数: 15.709707
详细信息
固有亮度:
5
最大亮度:
2.5
卫星平台:
Starlink V1.0
覆盖范围:
全球
运营商:
太空探索技术公司
运营商所在国:
美国
制造商(研发单位):
太空探索技术公司
制造商所在国:
美国
使用方式:
暂无
卫星简介
Starlink 计划是 SpaceX 推出的全球卫星互联网项目,通过发射低轨道卫星,为全球尤其是偏远地区提供高速、低延迟的互联网服务。自 2019 年起,Starlink 已部署数千颗卫星,旨在缩小全球数字鸿沟,推动互联网普及。该项目还为军事、航空等行业提供通信支持,带来广泛经济效益。
2D轨道图
3D轨道图
轨道高度分析图
轨道倾角分析图
轨道综合分析图
查看轨道综合分析图